User: anonymous   Login
Location: Peebles
(55.6412°N, 3.1714°W)
Time: 03:59:42
(UTC+00:00)
Language:

CZ-2C R/B - Orbit

View from above orbital plane
View from above orbital plane
View from above satellite
View from above satellite

Ground track
Ground track

The orbit data is extracted from the following two-line orbital elements,

1 31114U 07010B   21333.92045771  .00000059  00000-0  45767-4 0  9992
2 31114  98.2284 156.0027 0060080 159.0596 201.3062 14.19380322758259
Epoch (UTC): 29 November 2021 22:05:27
Eccentricity: 0.0060080
inclination: 98.2284°
perigee height: 784 km
apogee height: 871 km
right ascension of ascending node: 156.0027°
argument of perigee: 159.0596°
revolutions per day: 14.19380322
mean anomaly at epoch: 201.3062°
orbit number at epoch: 75825

The dashed part of the orbit path shows where the satellite is in the earth's shadow,  

DLR